Date,TemperatureHighF,TemperatureAvgF,TemperatureLowF,DewpointHighF,DewpointAvgF,DewpointLowF,HumidityHigh,HumidityAvg,HumidityLow,PressureMaxIn,PressureMinIn,WindSpeedMaxMPH,WindSpeedAvgMPH,GustSpeedMaxMPH,PrecipitationSumIn
2013-1-1,29.3,28.8,27.9,28.3,27.5,25.6,96,95,91,30.56,30.48,2,0,3,0.00
2013-1-2,50.5,32.0,25.7,37.5,28.6,23.4,97,88,57,30.50,30.25,4,1,5,0.01
2013-1-3,53.8,33.1,23.7,34.5,28.5,21.5,95,84,46,30.33,30.13,7,1,8,0.18
2013-1-4,50.2,36.7,33.3,42.8,34.6,31.7,98,92,67,30.47,30.25,2,0,4,0.09
2013-1-5,39.6,36.3,33.6,39.3,35.4,32.5,99,96,94,30.33,30.24,3,0,4,0.07
2013-1-6,50.7,37.3,32.4,40.4,35.2,31.3,99,92,68,30.36,30.11,3,0,4,0.16
2013-1-7,40.8,37.4,34.9,40.6,36.5,33.6,99,97,94,30.27,30.05,3,0,6,0.62
2013-1-8,46.2,42.1,37.8,45.4,41.7,37.5,99,98,94,30.18,29.91,7,1,14,0.32
2013-1-9,44.1,35.3,30.0,42.7,34.0,29.2,99,95,89,30.05,29.76,5,0,13,0.14
2013-1-10,46.8,32.3,28.9,37.6,29.5,25.8,97,90,58,30.23,30.04,4,1,7,0.13
2013-1-11,41.5,23.5,16.5,31.9,18.8,12.0,93,82,55,30.53,30.22,4,0,6,0.03
2013-1-12,43.2,22.7,11.7,28.0,16.6,7.0,88,78,50,30.63,30.44,2,0,4,0.02
2013-1-13,42.4,23.6,13.3,28.6,17.9,8.8,87,79,51,30.72,30.43,2,0,4,0.00
2013-1-14,38.3,23.2,14.0,31.4,18.7,9.0,91,83,68,30.74,30.59,3,0,4,0.00
2013-1-15,51.8,31.7,21.9,35.4,26.8,18.9,94,83,50,30.88,30.63,3,0,4,0.23
2013-1-16,46.9,29.1,19.9,34.7,24.6,17.5,95,84,57,30.83,30.57,2,0,2,0.07
2013-1-17,49.8,29.3,19.0,35.7,23.7,14.7,94,81,57,30.69,30.35,2,0,2,0.04
2013-1-18,47.7,29.4,20.3,35.9,24.7,17.6,92,83,61,30.52,30.29,1,0,2,0.01
2013-1-21,32.9,26.1,22.6,27.4,22.1,19.1,87,85,80,30.28,30.23,0,0,1,0.00
2013-1-22,43.9,30.1,19.4,38.1,26.7,15.9,93,87,75,30.32,30.00,2,0,3,0.01
2013-1-23,39.4,35.4,33.3,36.7,32.8,30.6,95,90,83,30.26,29.95,3,0,4,0.20
2013-1-24,49.1,34.6,27.0,39.4,32.1,24.4,95,91,65,30.39,30.16,2,0,4,0.17
2013-1-25,46.0,36.9,28.6,43.8,35.3,27.3,98,94,91,30.21,30.03,2,0,2,0.25
2013-1-26,45.1,34.3,28.8,41.8,32.5,27.5,97,93,81,30.13,30.00,2,0,2,0.08
2013-1-27,43.5,34.6,32.9,39.0,32.6,31.0,98,92,81,30.22,30.07,2,0,4,0.09
2013-1-28,34.3,33.2,32.7,32.9,31.8,31.4,96,95,92,30.24,30.11,0,0,1,0.01
2013-1-29,41.3,35.3,33.3,34.3,32.5,31.5,95,87,38,30.62,29.97,1,0,0,1.62
2013-1-30,42.3,36.0,33.3,40.7,34.6,32.0,99,95,92,30.63,30.58,0,0,0,1.41
2013-1-31,48.0,38.4,34.2,44.1,36.6,32.6,98,93,83,30.67,30.53,0,0,0,0.24
2013-2-1,37.9,31.8,31.5,36.6,30.5,30.2,95,95,95,30.62,30.54,0,0,0,0.07
2013-2-2,33.4,31.4,25.3,32.2,29.8,22.8,95,94,89,30.62,30.55,0,0,0,0.00
2013-2-3,33.4,33.4,33.4,32.2,32.2,32.2,95,95,95,30.55,30.55,0,0,0,0.00
2013-2-4,42.1,38.6,33.1,39.7,36.5,31.8,98,92,90,30.55,30.35,0,0,0,0.00
2013-2-5,45.1,36.8,34.7,40.3,35.2,33.4,97,94,83,30.19,30.08,0,0,0,0.25
2013-2-6,45.7,37.5,33.6,41.2,35.6,32.5,99,93,80,30.27,29.90,0,0,0,0.13
2013-2-7,52.9,34.9,24.1,40.1,31.2,21.3,99,87,51,30.31,29.99,0,0,0,0.10
2013-2-8,47.8,29.5,20.1,35.8,25.2,17.1,95,85,59,30.47,30.29,0,0,0,0.01
2013-2-9,41.5,34.6,28.9,36.2,32.1,27.7,96,90,79,30.44,30.33,0,0,0,0.00
2013-2-10,45.1,36.8,31.6,37.1,32.3,30.4,95,85,61,30.51,30.38,0,0,0,0.00
2013-2-11,50.0,38.0,32.7,39.2,34.0,30.7,97,86,58,30.48,30.36,3,0,4,0.11
2013-2-12,47.8,41.2,36.0,44.5,38.7,34.4,96,91,88,30.54,30.48,0,0,1,0.04
2013-2-13,46.4,42.7,36.3,42.3,39.7,35.3,99,89,73,30.60,30.51,4,0,6,0.04
2013-2-14,48.2,39.2,36.5,43.9,37.7,35.5,96,94,85,30.65,30.60,2,0,4,4.28
2013-2-15,52.7,40.0,25.9,44.3,38.2,23.1,94,93,73,30.62,30.27,0,0,1,0.01
2013-2-16,41.3,36.2,25.9,31.5,28.7,23.1,89,55,38,30.46,29.97,1,1,0,0.01
2013-2-17,41.3,41.3,41.3,31.5,31.5,31.5,38,38,38,29.97,29.97,1,1,0,0.00
2013-2-18,41.3,41.3,41.3,31.5,31.5,31.5,38,38,38,29.97,29.97,1,1,0,0.00
2013-2-19,41.3,41.3,41.3,31.5,31.5,31.5,38,38,38,29.97,29.97,1,1,0,0.00
2013-2-20,41.7,39.5,32.7,32.9,31.4,29.8,89,53,38,30.12,29.97,2,1,3,0.00
2013-2-21,39.9,34.6,31.3,37.2,32.2,28.7,94,91,85,30.24,30.11,2,0,3,0.14
2013-2-22,40.3,35.5,32.4,39.0,33.7,30.6,97,93,90,30.21,29.87,9,1,23,0.72
2013-2-23,40.8,34.3,32.2,37.0,32.0,30.4,94,91,81,30.51,30.12,5,0,8,0.22
2013-2-24,50.5,37.4,32.2,40.1,33.8,30.4,94,87,64,30.52,30.09,1,0,4,0.02
2013-2-25,35.6,33.9,33.4,32.4,31.8,31.2,93,92,88,30.12,30.05,1,0,2,1.35
2013-3-1,42.1,41.9,41.5,41.3,41.1,40.8,97,97,97,30.41,30.39,0,0,0,0.00
2013-3-2,56.8,42.2,31.8,47.2,39.3,30.2,99,90,56,30.40,30.13,0,0,0,0.13
2013-3-3,55.9,35.6,24.8,37.0,29.6,21.2,95,81,33,30.43,30.24,0,0,2,0.01
2013-3-4,62.1,39.8,21.9,33.0,25.1,18.4,92,63,22,30.43,29.96,4,0,5,0.00
2013-3-5,51.8,41.1,30.7,37.8,33.5,26.2,95,75,54,30.06,29.78,5,1,13,0.00
2013-3-6,40.3,36.6,34.5,38.7,34.5,31.7,96,92,85,30.00,29.67,4,0,6,0.50
2013-3-7,65.5,38.7,26.1,44.4,34.8,24.1,99,88,37,30.25,30.00,4,0,5,0.10
2013-3-8,71.8,38.8,22.5,42.9,30.0,20.2,99,77,23,30.37,30.01,6,1,9,0.01
2013-3-9,70.3,40.0,23.0,40.4,29.0,18.8,99,75,16,30.65,30.37,6,1,9,0.00
2013-3-10,46.4,37.0,26.1,45.0,36.4,25.1,99,98,92,30.68,30.51,3,0,5,0.08
2013-3-11,58.5,44.7,38.3,48.6,42.4,38.0,99,92,66,30.54,30.29,0,0,1,0.09
2013-3-12,50.4,44.6,41.4,50.1,44.2,41.1,99,98,97,30.29,30.20,0,0,0,0.28
2013-3-13,63.1,47.5,42.3,54.9,46.5,42.0,99,97,70,30.30,30.18,1,0,2,0.13
2013-3-14,69.3,52.1,42.4,56.5,42.7,23.3,99,76,21,30.25,30.01,0,0,1,0.02
2013-3-15,69.8,48.8,39.9,52.9,44.7,39.7,99,88,44,30.33,30.17,0,0,0,0.05
2013-3-16,51.6,41.3,32.9,48.5,40.4,32.7,99,97,77,30.22,29.98,0,0,0,0.33
2013-3-17,58.8,36.5,32.5,42.6,33.8,30.9,99,91,43,30.36,30.11,0,0,0,0.23
2013-3-18,62.1,37.8,28.0,44.7,34.7,27.3,99,90,45,30.36,30.18,0,0,0,0.29
2013-3-19,48.9,38.9,28.2,38.8,33.7,27.5,99,83,60,30.33,30.07,6,0,9,0.00
2013-4-2,56.7,49.3,39.9,49.5,45.7,39.7,99,88,76,30.30,30.21,3,0,4,0.00
2013-4-3,77.4,49.4,29.1,51.6,39.2,28.9,99,76,25,30.36,30.03,5,1,8,0.00
2013-4-4,58.8,49.9,45.1,56.5,48.7,43.4,99,96,89,30.02,29.76,10,1,16,0.37
2013-4-5,57.0,47.7,43.5,51.8,46.8,43.0,99,97,75,29.97,29.85,4,0,5,1.01
2013-4-6,54.9,43.9,38.5,50.7,42.5,38.2,99,95,69,30.08,29.86,11,1,15,0.70
2013-4-7,47.3,39.0,34.0,45.0,38.3,33.2,99,97,88,30.00,29.59,6,1,11,1.07
2013-4-8,53.6,41.1,35.1,49.2,40.2,34.6,99,97,84,30.37,30.00,4,0,7,0.33
2013-4-9,63.7,46.7,35.2,48.1,41.6,34.7,99,84,46,30.46,30.30,4,0,4,0.03
2013-4-10,59.9,47.1,40.5,51.3,43.7,38.0,99,89,64,30.35,30.09,11,2,15,0.44
2013-4-11,69.4,44.9,31.3,44.5,37.1,31.0,99,79,26,30.41,30.18,8,1,9,0.11
2013-4-12,56.3,39.1,29.1,43.0,35.9,28.9,99,90,50,30.29,29.84,5,0,8,0.25
2013-4-13,41.0,34.0,32.0,38.6,33.4,31.8,99,98,91,30.18,29.93,4,0,8,0.29
2013-4-14,54.3,36.9,32.5,43.6,34.9,32.3,99,93,58,30.20,30.06,4,1,6,0.62
2013-4-19,140.0,137.0,41.3,99.9,97.8,31.5,99,97,38,29.99,29.88,4,1,8,6.73
2013-4-20,140.0,140.0,140.0,99.9,99.9,99.9,99,99,99,30.07,29.99,2,0,4,0.03
2013-4-21,140.0,140.0,140.0,99.9,99.9,99.9,99,99,99,30.07,30.07,0,0,1,0.00
2013-4-22,140.0,121.5,31.5,99.9,88.3,30.9,99,98,65,30.56,30.07,2,0,3,0.25
2013-4-23,40.5,29.9,25.5,37.2,29.0,24.8,99,96,87,30.57,30.37,1,0,2,0.00
2013-4-24,84.0,50.4,26.4,52.9,32.2,24.1,99,65,12,30.51,30.05,7,1,11,0.00
2013-4-25,81.9,53.0,29.1,48.7,37.6,28.9,99,67,22,30.28,29.98,8,1,12,7.01
2013-4-26,88.5,58.2,32.7,50.8,37.6,26.6,99,61,12,30.38,30.13,9,1,13,0.00
2013-4-27,66.6,52.5,45.1,49.4,42.4,28.2,99,75,27,30.36,30.26,4,1,7,0.22
2013-4-28,68.5,52.0,42.3,51.5,43.9,39.6,99,76,43,30.32,30.12,7,1,10,0.21
2013-4-29,58.1,43.4,33.1,44.2,36.2,28.8,99,78,43,30.30,30.09,8,2,16,0.23
2013-4-30,57.7,41.0,31.6,39.1,31.5,24.5,99,75,29,30.39,30.29,10,1,12,0.00
2013-5-1,140.0,48.1,37.4,99.9,43.3,36.4,99,95,92,30.64,30.30,0,0,1,0.00
2013-5-2,89.4,56.6,29.5,47.2,37.3,29.2,99,61,12,30.68,30.27,10,1,14,0.00
2013-5-3,82.2,64.7,38.7,47.8,44.1,38.4,99,54,22,30.54,30.18,8,2,12,0.00
2013-5-4,93.4,60.0,32.9,52.0,37.4,28.1,99,60,11,30.41,29.93,6,1,9,0.00
2013-5-6,58.3,53.2,48.7,50.1,48.2,46.1,91,83,74,29.93,29.84,2,0,2,0.00
2013-5-7,87.3,66.0,37.9,54.9,49.7,37.7,99,62,32,30.10,29.84,11,2,14,0.00
2013-5-8,49.5,46.9,44.8,49.2,46.4,44.0,99,98,97,30.27,30.22,0,0,0,0.00
2013-5-9,89.1,64.3,41.2,57.3,51.2,40.9,99,69,33,30.32,30.05,8,2,12,0.00
2013-5-10,96.1,77.1,48.9,63.6,55.1,48.7,99,53,26,30.35,30.03,8,2,12,0.00
2013-5-11,53.4,53.2,53.2,52.7,52.6,52.4,98,98,97,30.26,30.25,0,0,0,0.00
2013-5-15,48.9,48.8,48.6,48.7,48.6,48.3,99,99,99,30.12,30.11,0,0,0,0.00
2013-5-16,83.3,56.2,44.8,58.6,49.3,43.3,99,83,29,30.12,29.85,6,1,11,0.25
2013-5-17,61.3,50.9,46.8,52.3,49.2,46.5,99,94,67,30.19,30.06,2,0,3,0.63
2013-5-18,60.4,49.9,44.6,52.8,47.7,43.8,99,93,69,30.35,30.19,4,0,7,0.18
2013-5-19,62.1,52.1,40.6,53.4,48.5,40.4,99,88,65,30.47,30.35,5,2,10,0.09
2013-5-20,80.1,60.0,41.0,55.3,49.2,40.7,99,72,37,30.45,29.94,7,1,14,0.00
2013-5-21,62.8,46.3,39.0,54.4,44.5,38.8,99,94,63,29.99,29.83,7,1,9,0.62
2013-5-22,56.8,41.3,33.4,46.6,39.4,33.2,99,94,67,30.04,29.94,3,0,4,0.87
2013-5-23,51.6,43.7,38.3,48.7,42.8,38.0,99,97,85,30.11,30.02,3,0,5,0.26
2013-5-24,72.5,49.4,40.5,53.8,45.7,40.2,99,89,40,30.13,30.01,3,0,5,0.07
2013-5-25,66.4,52.4,40.1,51.8,44.7,39.8,99,78,44,30.15,30.01,3,0,4,0.00
2013-5-26,79.9,53.5,39.2,57.2,47.7,38.9,99,84,32,30.09,29.92,5,1,7,0.08
2013-5-27,63.9,50.9,42.6,55.7,49.7,42.3,99,96,70,30.06,29.72,5,1,7,0.30
2013-5-28,75.4,53.5,45.7,56.6,49.5,44.9,99,88,37,29.96,29.83,6,0,8,0.07
2013-5-29,57.4,49.4,44.2,54.4,48.2,43.7,99,96,79,30.05,29.79,6,0,11,0.63
2013-5-30,72.3,57.1,46.2,52.3,47.5,43.9,99,72,43,30.32,30.15,7,1,10,0.07
2013-5-31,79.0,60.1,40.3,49.7,46.2,40.0,99,65,32,30.43,30.23,6,2,9,0.01
2013-6-1,88.2,59.8,39.2,54.8,46.8,38.9,99,70,23,30.38,30.00,7,1,10,0.00
2013-6-2,77.5,57.4,43.3,52.1,48.5,42.8,99,75,36,30.18,30.01,11,2,14,0.00
2013-6-3,82.8,68.8,46.8,55.0,51.5,46.5,99,58,35,30.22,29.98,10,2,11,0.00
2013-6-4,92.8,78.5,55.6,58.6,53.8,49.9,97,46,29,30.20,29.95,7,2,11,0.00
2013-6-5,88.9,78.1,56.7,61.9,54.9,39.4,99,47,24,30.17,29.96,8,2,11,12.68
2013-6-6,56.8,56.8,56.8,56.6,56.6,56.6,99,99,99,30.14,30.14,0,0,1,0.00
2013-6-9,56.5,56.5,56.5,50.7,50.7,50.7,81,81,81,30.17,30.17,3,3,5,0.00
2013-6-10,51.6,50.5,49.6,48.6,47.3,46.5,90,88,87,30.06,30.02,4,2,5,0.00
2013-6-11,68.5,52.4,44.8,55.8,46.8,43.0,99,83,45,30.24,30.06,4,1,7,0.21
2013-6-12,75.4,51.2,44.2,55.1,47.5,43.4,99,89,38,30.26,30.11,4,1,8,0.11
2013-6-13,77.0,53.4,43.2,56.9,48.7,42.6,99,86,39,30.26,30.13,5,1,8,0.15
2013-6-14,48.0,44.9,42.4,47.8,44.3,42.2,99,98,97,30.16,30.14,0,0,1,0.00
2013-6-15,90.3,60.4,34.7,58.5,48.4,34.2,99,72,32,30.16,29.84,8,1,15,0.00
2013-6-16,85.8,62.1,42.3,60.4,53.4,42.0,99,77,40,30.18,29.97,8,1,11,0.00
2013-6-17,87.6,65.4,51.6,61.4,54.4,50.3,99,73,33,30.16,29.87,4,1,8,0.04
2013-6-18,79.5,59.2,50.0,59.4,51.2,44.8,99,80,34,30.08,29.89,6,1,8,0.46
2013-6-19,69.4,55.8,50.0,56.7,52.6,49.7,99,90,62,30.13,29.99,3,1,6,0.20
2013-6-20,59.7,51.4,47.7,54.9,50.3,47.4,99,96,80,30.21,30.10,4,0,7,0.51
2013-6-21,79.3,57.7,47.7,56.2,51.1,47.4,99,82,41,30.28,30.12,4,1,8,0.20
2013-6-22,91.0,62.3,38.3,60.9,51.0,38.0,99,74,31,30.28,29.84,4,1,6,0.00
2013-6-23,70.9,61.0,53.6,66.3,59.0,52.8,99,94,78,29.95,29.67,2,0,2,0.19
2013-6-24,80.8,59.1,52.0,59.1,55.2,51.4,99,88,43,29.77,29.64,2,0,3,0.42
2013-6-25,75.2,58.3,51.4,61.4,55.1,51.2,99,90,51,29.94,29.75,2,0,3,0.19
2013-6-26,80.8,61.0,52.0,63.3,56.1,51.4,99,86,41,30.14,29.94,3,0,4,0.13
2013-6-27,82.0,61.9,54.0,66.0,58.1,53.1,99,89,55,30.16,30.08,2,0,3,0.04
2013-6-28,72.7,67.4,61.3,66.1,64.3,60.8,98,90,80,30.10,30.01,2,0,3,0.00
2013-6-29,94.5,73.8,58.3,68.5,63.2,58.0,99,75,39,30.15,29.91,7,1,13,0.00
2013-6-30,105.8,76.0,51.1,71.1,62.4,50.6,99,71,32,30.09,29.73,5,1,8,0.00
2013-7-1,102.0,77.2,56.3,72.0,65.2,56.0,99,73,36,30.02,29.80,5,1,11,0.00
2013-7-2,100.8,75.9,60.6,71.9,64.5,59.4,99,73,38,30.10,29.92,9,2,12,0.00
2013-7-4,78.6,65.2,52.5,56.5,54.0,51.8,98,69,45,30.24,30.06,9,2,14,0.00
2013-7-5,77.5,59.8,48.9,57.5,53.2,48.7,99,81,46,30.13,29.97,8,1,11,0.00
2013-7-6,83.7,62.6,49.3,60.0,54.7,49.0,99,79,43,30.10,29.85,6,1,11,0.00
2013-7-7,85.6,63.6,44.6,61.8,54.6,43.8,99,77,43,30.08,29.85,10,2,14,0.00
2013-7-8,89.8,66.1,53.2,62.6,57.4,52.7,99,78,37,30.15,29.98,7,1,11,0.00
2013-7-10,88.0,73.0,48.7,61.4,56.2,47.9,99,59,37,30.16,29.90,7,2,11,0.00
2013-7-11,81.0,57.9,39.0,53.1,46.6,38.8,99,73,29,30.22,29.98,8,1,11,0.00
2013-7-12,74.8,55.4,43.3,54.0,48.7,42.8,99,81,42,30.26,30.04,6,1,10,0.00
2013-7-13,84.9,59.3,35.6,57.1,47.4,34.8,99,72,35,30.37,30.06,8,1,14,0.00
2013-7-14,92.3,64.3,38.8,57.7,48.7,38.6,99,67,24,30.31,29.94,6,1,10,0.00
2013-7-15,89.8,61.7,39.4,58.1,50.0,39.1,99,73,31,30.21,29.84,6,1,13,0.00
2013-7-16,99.5,66.3,43.2,70.1,56.7,42.6,99,78,24,30.04,29.73,7,0,13,0.00
2013-7-17,74.7,62.2,47.5,62.7,59.1,45.8,99,90,64,30.27,29.79,5,1,8,15.93
2013-7-18,89.4,65.3,46.4,62.6,55.6,46.1,99,76,39,30.36,30.06,6,1,11,0.00
2013-7-19,91.4,67.2,45.7,65.0,56.8,44.9,99,75,39,30.27,29.97,10,1,16,0.00
2013-7-20,92.8,68.5,50.0,64.2,58.2,49.7,99,75,39,30.16,29.90,8,1,12,0.00
2013-7-22,61.5,56.0,51.8,58.1,55.0,51.3,99,96,88,30.12,30.04,1,0,2,0.00
2013-7-23,94.5,66.7,43.5,66.3,55.2,43.0,99,73,36,30.21,29.88,7,1,10,0.00
2013-7-24,94.8,67.3,45.0,63.6,54.5,44.2,99,71,33,30.19,29.89,7,1,13,0.00
2013-7-25,94.8,66.3,43.2,61.9,52.2,42.6,99,70,27,30.22,29.97,7,1,11,0.00
2013-7-26,93.2,67.0,42.1,63.2,52.0,41.8,99,68,27,30.30,29.99,7,1,11,0.00
2013-7-27,88.3,62.9,41.2,56.3,50.2,40.9,99,71,32,30.30,29.97,7,1,11,0.00
2013-7-28,83.3,61.5,41.4,59.9,51.3,41.1,99,75,41,30.17,29.93,8,1,11,0.00
2013-7-29,85.6,64.4,50.2,60.5,54.9,49.9,99,76,40,30.12,29.90,5,1,9,0.00
2013-7-30,88.9,65.2,44.6,64.7,54.4,43.8,99,74,36,30.26,30.00,7,1,11,0.00
2013-7-31,88.2,63.7,48.2,64.9,56.8,47.9,99,82,43,30.23,29.98,4,0,6,15.93
2013-8-1,66.4,58.5,54.3,58.3,56.2,53.5,99,92,74,30.19,30.09,4,0,7,0.00
2013-8-2,77.4,60.3,53.8,57.8,55.4,52.9,99,86,47,30.22,30.11,4,0,7,0.01
2013-8-3,82.4,66.1,55.2,63.6,58.8,54.4,99,80,48,30.21,29.99,8,1,13,0.00
2013-8-4,94.5,71.6,53.1,67.5,61.0,52.5,99,74,39,30.12,29.83,8,1,16,0.00
2013-8-5,93.7,61.7,50.0,67.2,56.0,49.7,99,86,42,30.10,29.88,7,0,12,0.00
2013-8-6,96.6,62.4,45.0,61.5,53.3,44.2,99,81,23,30.12,29.81,8,1,14,0.00
2013-8-7,92.7,67.6,44.1,64.2,53.5,43.5,99,69,31,30.14,29.83,6,1,13,0.00
2013-8-8,87.3,55.6,46.4,62.3,52.9,46.1,99,93,43,30.14,29.97,3,0,4,0.00
2013-8-9,92.5,67.6,47.7,65.8,57.3,47.4,99,75,39,30.07,29.79,8,1,11,0.61
2013-8-10,93.0,75.1,59.2,69.4,64.6,58.9,99,73,41,30.05,29.85,8,2,11,0.00
2013-8-11,86.0,66.3,58.1,64.0,60.2,57.8,99,83,46,30.11,29.95,7,1,11,0.00
2013-8-12,87.8,68.5,56.5,62.3,58.9,56.1,99,75,42,30.14,29.94,6,1,10,16.57
2013-8-13,95.4,68.7,48.2,64.6,57.1,47.9,99,73,34,30.21,29.87,4,1,8,0.00
2013-8-14,99.7,64.9,46.0,66.3,55.3,45.2,99,78,22,30.11,29.82,4,0,8,0.00
2013-8-15,75.0,67.8,61.3,69.1,64.3,60.8,99,89,66,30.05,29.98,0,0,1,0.05
2013-8-16,100.4,69.8,48.2,68.5,57.8,47.9,99,74,21,30.14,29.84,5,1,8,0.00
2013-8-17,93.4,66.5,52.0,64.2,57.7,51.4,99,78,33,30.13,29.93,5,1,8,0.00
2013-8-18,94.3,68.9,52.2,64.3,57.5,51.6,99,74,32,30.20,29.97,6,1,11,0.00
2013-8-19,91.4,65.9,46.0,62.6,54.7,45.2,99,74,32,30.23,29.96,6,1,9,0.00
2013-8-20,84.9,69.2,47.7,60.1,54.8,47.4,99,64,38,30.22,29.99,8,2,12,0.00
2013-8-21,97.0,64.7,40.5,66.6,52.9,40.2,99,73,30,30.25,29.87,5,1,10,0.00
2013-8-22,87.6,70.9,59.0,68.4,62.4,58.7,99,78,43,29.92,29.78,2,0,4,0.00
2013-8-23,88.7,66.3,56.1,64.3,58.5,54.9,99,79,41,29.95,29.82,6,1,8,0.00
2013-8-24,77.4,63.9,51.3,62.0,56.7,51.0,99,79,54,30.03,29.88,6,1,11,0.01
2013-8-25,86.4,58.7,43.3,63.0,53.5,42.8,99,86,35,30.09,29.86,4,0,7,0.01
2013-8-26,83.7,69.6,51.8,66.1,56.9,51.3,99,69,37,30.04,29.83,4,1,7,0.06
2013-8-27,91.2,73.2,57.9,66.8,62.9,57.6,99,73,41,30.01,29.74,4,1,6,0.00
2013-8-28,88.3,75.5,61.9,67.5,65.0,61.3,98,72,45,29.92,29.77,4,1,6,0.01
2013-8-29,79.3,66.1,59.4,70.9,63.9,59.1,99,93,70,30.10,29.91,4,0,6,0.07
2013-8-30,86.4,65.2,53.6,65.9,59.5,52.8,99,85,43,30.20,30.06,4,0,8,17.78
2013-8-31,96.4,78.1,48.0,66.3,61.9,47.8,99,64,35,30.16,29.75,4,1,8,0.00
2013-9-1,93.4,79.5,61.5,65.5,63.7,57.9,95,62,40,29.88,29.69,4,2,8,0.00
2013-9-3,58.5,57.2,56.1,58.2,56.9,55.8,99,99,99,30.09,30.06,0,0,1,0.00
2013-9-4,87.8,68.9,57.4,64.5,61.2,57.1,99,79,43,30.12,29.96,4,1,9,0.68
2013-9-5,65.1,61.0,57.2,62.6,59.8,56.9,99,96,88,30.09,29.99,6,1,9,0.35
2013-9-6,62.4,58.8,55.2,61.8,58.4,54.4,99,99,97,30.19,30.08,2,0,4,0.88
2013-9-7,86.9,63.7,50.0,66.6,58.4,49.7,99,86,47,30.20,29.94,5,1,8,0.01
2013-9-8,94.3,68.2,53.6,67.0,60.0,52.8,99,80,38,30.18,29.95,8,1,12,0.00
2013-9-9,98.2,66.6,46.8,68.1,57.4,46.5,99,78,36,30.19,29.89,6,1,13,0.00
2013-9-10,60.3,60.3,60.3,59.4,59.4,59.4,97,97,97,29.94,29.94,1,1,2,0.00
2013-9-11,61.7,59.6,57.0,60.3,58.7,56.6,99,97,95,30.01,29.97,1,0,2,0.00
2013-9-12,107.4,69.9,49.3,70.2,59.1,49.0,99,76,27,30.11,29.76,4,1,8,0.00
2013-9-13,96.3,66.8,50.0,68.7,59.0,49.7,99,81,40,30.06,29.77,8,1,11,0.00
2013-9-14,98.4,69.1,55.4,69.5,61.2,55.1,99,81,37,29.94,29.64,4,0,4,0.00
2013-9-15,76.6,61.0,53.8,66.2,59.0,52.9,99,94,68,29.92,29.74,4,0,7,0.02
2013-9-16,62.8,57.8,54.0,60.6,57.2,53.1,99,98,91,30.02,29.91,2,0,3,0.18
2013-9-17,64.9,54.4,51.3,56.2,52.9,51.0,99,95,72,30.03,29.89,5,1,8,0.17
2013-9-18,80.1,57.3,41.9,60.6,51.0,41.6,99,83,37,30.17,29.98,5,1,7,0.01
2013-9-19,91.8,57.6,35.1,64.6,46.9,34.6,99,76,24,30.19,29.74,4,1,11,0.00
2013-9-20,86.7,57.6,38.8,59.3,50.0,38.6,99,81,31,29.90,29.55,3,0,8,0.05
2013-9-21,79.7,57.6,51.6,66.2,54.2,51.3,99,90,46,29.80,29.66,4,0,7,0.17
2013-9-22,54.9,51.4,49.5,54.0,51.0,49.2,99,98,95,29.86,29.71,5,0,8,0.63
2013-9-23,59.2,51.3,47.7,57.5,50.8,47.4,99,98,91,30.04,29.86,3,0,4,0.27
2013-9-24,70.0,50.0,39.0,54.5,46.9,38.8,99,90,53,30.06,29.82,5,0,8,0.16
2013-9-25,56.7,47.5,38.3,52.5,45.9,38.0,99,94,81,30.15,29.90,6,1,10,0.12
2013-9-26,74.1,47.9,33.6,53.6,42.2,33.3,99,84,42,30.31,30.05,5,1,8,0.03
2013-9-27,50.9,45.8,36.5,50.6,45.5,35.7,99,99,97,30.31,30.00,2,0,4,0.22
2013-9-28,57.4,51.6,46.2,57.1,51.2,45.4,99,99,97,30.00,29.49,5,1,13,1.88
2013-9-29,50.0,46.7,45.7,49.7,46.3,44.9,99,98,97,29.76,29.37,7,1,14,1.11
2013-9-30,52.5,46.1,41.4,52.0,45.6,41.1,99,98,93,30.06,29.72,16,1,24,1.31
2013-10-1,62.4,46.4,41.9,54.9,44.9,41.6,99,95,65,30.23,30.04,3,0,4,0.10
2013-10-2,57.6,46.0,42.3,50.8,44.6,42.0,99,95,76,30.27,30.09,4,0,7,0.14
2013-10-3,61.5,46.5,39.4,51.9,44.3,39.1,99,93,65,30.54,30.27,5,0,8,0.01
2013-10-4,80.6,46.9,30.0,54.9,41.8,29.8,99,86,31,30.65,30.34,2,0,4,0.00
2013-10-5,90.3,50.4,32.5,60.0,43.9,32.3,99,84,28,30.52,30.10,4,0,7,0.00
2013-10-6,87.4,52.8,34.2,59.0,42.3,31.8,99,76,20,30.28,28.06,7,1,12,0.00
2013-10-7,48.2,47.2,46.4,47.0,46.5,44.0,99,98,89,28.16,28.10,2,0,3,0.00
2013-10-8,53.1,42.1,36.5,51.4,41.5,35.7,99,97,90,30.19,30.03,2,0,4,0.14
2013-10-9,69.8,43.4,29.1,53.0,39.3,28.9,99,88,48,30.32,30.02,4,0,7,0.01
2013-10-10,75.6,54.6,41.2,50.7,46.8,39.7,99,79,32,30.12,28.12,7,1,10,0.00
2013-10-11,55.8,49.5,43.3,51.9,46.1,42.8,98,89,74,28.31,28.26,3,0,4,0.00
2013-10-12,57.0,47.1,41.7,49.5,44.6,41.5,99,91,70,28.32,28.25,4,0,6,0.00
2013-10-13,41.3,41.3,41.3,31.5,31.5,31.5,38,38,38,29.97,29.97,1,1,0,0.00
2013-10-14,41.3,41.3,41.3,31.5,31.5,31.5,38,38,38,29.97,29.97,1,1,0,0.00
2013-10-15,39.6,38.7,38.3,39.3,38.4,38.0,99,99,99,30.30,30.29,1,0,2,0.00
2013-10-16,79.5,46.6,31.3,53.7,40.7,31.0,99,84,38,30.32,30.04,4,0,7,0.00
2013-10-17,87.3,48.1,31.3,56.2,41.3,31.0,99,83,33,30.41,30.09,4,0,7,0.00
2013-10-18,81.7,47.4,31.5,56.7,42.1,31.2,99,86,35,30.39,30.04,3,0,4,0.00
2013-10-19,88.3,47.7,31.3,56.1,41.2,31.0,99,84,30,30.34,30.02,3,0,4,0.00
2013-10-20,87.6,48.4,30.9,59.9,42.3,30.7,99,85,34,30.36,30.01,3,0,4,0.00
2013-10-21,92.7,50.9,33.4,63.0,45.0,33.2,99,85,36,30.32,29.95,2,0,4,0.00
2013-10-22,80.6,57.1,35.4,62.4,50.7,34.8,99,82,51,30.25,28.13,2,0,4,0.00
2013-10-23,82.6,49.7,34.2,61.4,44.8,33.7,99,87,48,28.23,28.08,3,0,4,0.00
2013-10-24,91.4,51.0,34.2,61.6,44.3,33.7,99,84,27,28.25,28.13,3,0,5,0.00
2013-10-25,78.1,52.8,35.2,54.7,46.7,34.7,99,83,43,28.45,28.37,3,0,4,0.00
2013-10-26,79.2,48.7,39.6,52.9,44.0,39.3,99,87,37,28.48,28.32,4,0,6,0.00
2013-10-27,51.4,42.4,32.7,47.1,41.3,32.5,99,96,82,28.34,28.05,9,1,14,0.00
2013-10-28,72.1,41.8,29.5,49.0,36.7,29.2,99,86,37,28.12,27.98,5,0,9,0.00
2013-10-29,69.6,37.0,24.8,44.8,32.1,23.8,99,86,35,28.23,28.10,4,0,5,0.00
2013-10-30,69.3,41.1,26.2,45.7,35.8,25.3,99,84,36,28.33,28.21,4,0,6,0.00
2013-10-31,56.1,46.2,41.9,54.7,45.8,41.6,99,98,92,28.38,28.31,2,0,4,0.00
2013-11-3,48.4,40.1,36.3,45.2,38.7,35.6,99,95,73,28.26,28.18,8,1,10,0.00
2013-11-4,54.7,39.0,30.2,42.2,36.4,30.0,99,92,52,28.34,28.23,4,0,8,0.00
2013-11-5,69.1,43.4,35.6,56.4,43.0,34.8,99,98,64,28.39,28.20,3,0,7,0.00
2013-11-6,55.0,43.1,33.6,51.7,42.2,33.3,99,97,84,28.47,28.23,2,0,3,0.00
2013-11-7,48.7,45.0,42.4,48.5,44.6,42.2,99,98,97,28.23,27.97,7,1,10,0.00
2013-11-8,50.4,41.2,32.5,48.1,40.6,32.3,99,98,86,28.32,28.20,2,0,4,0.00
2013-11-9,47.3,38.6,30.7,47.0,38.2,30.5,99,99,97,28.31,28.22,3,0,4,0.00
2013-11-10,57.9,46.0,37.9,51.9,44.3,37.7,99,94,78,28.30,28.23,2,0,4,0.00
2013-11-11,74.1,48.1,36.3,53.6,42.8,35.6,99,84,39,28.37,28.22,8,1,11,0.00
2013-11-12,64.0,49.8,43.5,56.8,48.1,41.8,99,94,74,28.58,28.24,4,0,6,0.00
2013-11-13,65.5,47.1,42.6,52.8,44.9,42.3,99,93,58,28.63,28.58,2,0,4,0.00
2013-11-22,31.8,28.7,26.2,29.8,26.9,24.2,96,93,91,28.63,28.58,4,1,4,0.00
2013-11-23,48.2,31.6,24.6,40.7,28.9,22.6,96,90,72,28.59,28.35,2,0,4,0.00
2013-11-24,51.1,33.1,25.7,40.2,29.5,23.4,96,87,64,28.39,28.27,2,0,3,0.00
2013-11-25,50.2,34.7,25.2,41.3,31.0,22.6,95,87,64,28.49,28.40,2,0,2,0.00
2013-11-26,36.5,28.7,25.0,34.2,26.3,22.2,93,90,89,28.40,28.24,1,0,2,0.00
2013-11-27,57.0,37.7,29.5,49.4,35.1,28.2,98,91,62,28.24,28.10,3,0,4,0.00
2013-11-28,52.0,33.5,26.6,42.7,30.5,24.3,98,89,62,28.34,28.18,2,0,3,0.00
2013-11-29,46.6,36.2,27.7,44.5,34.8,25.4,98,95,89,28.46,28.34,2,0,3,0.00
2013-11-30,47.8,41.8,37.9,46.0,41.1,37.4,99,98,91,28.51,28.29,2,0,3,0.00
2013-12-1,48.4,45.3,39.6,48.1,44.9,39.3,99,98,97,28.29,27.97,8,1,16,0.00
2013-12-2,39.6,33.3,29.8,39.3,32.5,29.3,99,97,90,28.17,28.00,8,0,12,0.00
2013-12-3,44.6,31.4,27.0,37.1,29.2,22.8,99,92,73,28.41,28.17,2,0,4,0.00
2013-12-4,45.3,24.4,16.2,29.9,19.7,12.2,93,83,51,28.47,28.38,0,0,0,0.00
2013-12-5,41.2,22.2,13.3,31.1,17.1,9.4,88,81,52,28.42,28.29,0,0,0,0.00
2013-12-6,34.2,21.7,17.8,17.4,10.3,1.9,81,62,41,28.30,28.18,0,0,0,0.00
2013-12-7,38.8,14.7,5.9,15.8,3.6,-1.6,78,62,26,28.55,28.28,0,0,0,0.00
2013-12-8,39.4,15.3,4.5,19.3,6.7,-2.8,76,69,41,28.65,28.51,0,0,0,0.00
2013-12-9,32.7,22.4,9.0,26.9,17.0,1.5,88,79,71,28.70,28.56,0,0,0,0.00
2013-12-10,39.0,31.3,28.0,34.1,28.6,24.0,92,89,79,28.60,28.50,1,0,2,0.00
2013-12-11,43.9,29.8,21.4,35.3,26.6,18.1,95,88,67,28.50,28.29,2,0,3,0.00
2013-12-12,41.9,33.4,27.0,37.3,31.3,24.2,96,92,77,28.30,28.23,8,0,12,0.00
2013-12-13,47.8,37.6,34.7,44.8,36.0,32.5,98,94,87,28.56,28.28,3,0,4,0.00
2013-12-14,45.9,37.3,31.5,43.7,35.8,29.9,99,94,90,28.58,28.50,3,0,4,0.00
2013-12-15,53.8,39.9,36.1,50.4,38.4,34.3,99,94,79,28.58,28.52,2,0,3,0.00
2013-12-16,48.9,35.0,29.3,40.1,32.6,28.0,99,91,69,28.64,28.36,2,0,3,0.00
2013-12-17,47.1,34.0,26.2,38.2,31.1,23.8,96,89,66,28.36,28.25,4,0,4,0.00
2013-12-18,45.1,36.1,26.8,42.4,33.1,23.7,99,89,74,28.27,28.15,4,1,9,0.00
2013-12-19,30.6,26.1,22.3,28.0,22.7,19.0,94,87,81,28.45,28.21,2,0,4,0.00
2013-12-20,33.4,31.2,24.4,32.4,29.3,21.1,96,93,86,28.36,27.95,2,0,2,0.00
2013-12-21,39.7,35.2,33.1,38.2,33.8,31.8,96,95,91,28.33,28.03,2,0,2,0.00
2013-12-22,42.4,38.7,36.9,41.9,37.9,35.3,99,97,94,28.54,28.40,1,0,2,0.00
2013-12-23,45.7,38.8,32.0,44.9,37.9,30.7,99,97,92,28.72,28.31,8,1,13,0.00
2013-12-24,50.0,33.9,26.1,42.4,31.2,23.5,99,91,65,28.80,28.45,2,0,4,0.00
2013-12-25,46.0,30.4,23.2,39.4,27.6,20.4,96,90,67,28.70,28.23,2,0,3,0.00
2013-12-26,48.0,31.6,26.1,38.3,28.6,23.5,95,89,67,28.60,28.26,2,0,2,0.00
2013-12-27,39.9,36.2,27.7,39.7,34.8,25.1,99,95,87,28.54,28.09,4,1,6,0.00
2013-12-28,50.7,37.5,30.0,41.9,35.2,28.4,99,92,65,28.74,28.48,2,0,3,0.00
2013-12-29,43.2,32.3,27.1,39.7,30.3,24.6,95,92,84,28.64,28.38,2,0,2,0.00
2013-12-30,42.3,36.6,32.0,41.7,35.5,30.5,99,96,92,28.54,28.18,3,0,4,0.00
2013-12-31,46.9,40.4,32.0,45.6,39.5,30.7,99,97,93,28.54,28.29,3,0,6,0.01
2014-1-1,45.5,35.0,28.6,39.5,33.0,27.6,99,93,72,28.52,28.45,2,0,2,0.00